TimeCST,TemperatureF,Dew PointF,Humidity,Sea Level PressureIn,VisibilityMPH,Wind Direction,Wind SpeedMPH,Gust SpeedMPH,PrecipitationIn,Events,Conditions,WindDirDegrees,DateUTC
12:15 AM,5.0,-0.4,78,30.00,10.0,Calm,Calm,-,N/A,,Mostly Cloudy,0,2013-02-03 06:15:00
12:35 AM,5.0,-0.4,78,29.99,10.0,Calm,Calm,-,N/A,,Mostly Cloudy,0,2013-02-03 06:35:00
12:55 AM,6.8,-0.4,72,29.98,10.0,West,4.6,-,N/A,,Mostly Cloudy,260,2013-02-03 06:55:00
1:15 AM,6.8,-0.4,72,29.98,10.0,West,4.6,-,N/A,,Overcast,260,2013-02-03 07:15:00
1:35 AM,6.8,-0.4,72,29.98,10.0,West,3.5,-,N/A,,Mostly Cloudy,270,2013-02-03 07:35:00
1:55 AM,5.0,-0.4,78,29.98,10.0,Calm,Calm,-,N/A,,Mostly Cloudy,0,2013-02-03 07:55:00
2:15 AM,6.8,-0.4,72,29.97,10.0,West,4.6,-,N/A,,Mostly Cloudy,270,2013-02-03 08:15:00
2:35 AM,6.8,-0.4,72,29.97,10.0,West,5.8,-,N/A,,Mostly Cloudy,260,2013-02-03 08:35:00
2:55 AM,6.8,-0.4,72,29.95,10.0,Calm,Calm,-,N/A,,Mostly Cloudy,0,2013-02-03 08:55:00
3:15 AM,6.8,1.4,79,29.95,10.0,West,3.5,-,N/A,,Mostly Cloudy,260,2013-02-03 09:15:00
3:35 AM,6.8,1.4,79,29.94,10.0,WSW,3.5,-,N/A,,Overcast,250,2013-02-03 09:35:00
3:55 AM,8.6,1.4,73,29.93,10.0,WSW,3.5,-,N/A,,Overcast,250,2013-02-03 09:55:00
4:15 AM,8.6,3.2,79,29.93,10.0,WSW,4.6,-,N/A,Snow,Light Snow,250,2013-02-03 10:15:00
4:35 AM,8.6,3.2,79,29.92,10.0,WSW,3.5,-,N/A,Snow,Light Snow,250,2013-02-03 10:35:00
4:55 AM,8.6,3.2,79,29.92,7.0,West,5.8,-,N/A,Snow,Light Snow,260,2013-02-03 10:55:00
5:15 AM,8.6,3.2,79,29.94,10.0,West,8.1,-,N/A,,Overcast,260,2013-02-03 11:15:00
5:35 AM,8.6,5.0,85,29.93,10.0,West,8.1,-,N/A,Snow,Light Snow,260,2013-02-03 11:35:00
6:45 AM,8.6,5.0,85,29.93,7.0,West,10.4,-,N/A,Snow,Light Snow,260,2013-02-03 12:45:00
7:45 AM,10.4,6.8,85,29.94,2.0,West,8.1,-,N/A,Snow,Light Snow,260,2013-02-03 13:45:00
8:45 AM,10.4,6.8,85,29.94,2.0,West,10.4,-,N/A,Snow,Light Snow,270,2013-02-03 14:45:00
9:45 AM,23.0,12.2,63,29.89,10.0,ENE,5.8,-,N/A,,Scattered Clouds,60,2013-02-03 15:45:00
10:45 AM,15.8,6.8,68,29.96,7.0,NW,17.3,24.2,N/A,,Overcast,310,2013-02-03 16:45:00
11:45 AM,15.8,6.8,68,29.97,10.0,WNW,18.4,25.3,N/A,,Scattered Clouds,290,2013-02-03 17:45:00
12:45 PM,15.8,6.8,68,29.97,10.0,West,17.3,25.3,N/A,,Scattered Clouds,280,2013-02-03 18:45:00
1:45 PM,17.6,5.0,58,29.96,10.0,WNW,18.4,25.3,N/A,,Clear,300,2013-02-03 19:45:00
2:45 PM,17.6,5.0,58,29.98,10.0,WNW,17.3,23.0,N/A,,Clear,300,2013-02-03 20:45:00
3:45 PM,17.6,5.0,58,29.98,10.0,West,12.7,19.6,N/A,,Clear,280,2013-02-03 21:45:00
4:45 PM,17.6,6.8,63,29.98,10.0,WNW,12.7,-,N/A,,Clear,290,2013-02-03 22:45:00
5:45 PM,15.8,5.0,62,29.99,10.0,West,5.8,-,N/A,,Clear,280,2013-02-03 23:45:00
6:45 PM,14.0,5.0,67,30.01,10.0,SW,3.5,-,N/A,,Scattered Clouds,230,2013-02-04 00:45:00
7:45 PM,15.8,6.8,68,30.01,10.0,WSW,5.8,-,N/A,,Overcast,240,2013-02-04 01:45:00
8:15 PM,17.6,8.6,68,30.01,10.0,WSW,5.8,-,N/A,,Overcast,240,2013-02-04 02:15:00
8:35 PM,17.6,8.6,68,30.01,10.0,West,6.9,-,N/A,,Overcast,260,2013-02-04 02:35:00
8:45 PM,15.8,8.6,73,30.01,10.0,West,6.9,-,N/A,,Overcast,260,2013-02-04 02:45:00
8:55 PM,17.6,8.6,68,30.01,10.0,WSW,9.2,-,N/A,,Overcast,250,2013-02-04 02:55:00
9:15 PM,17.6,8.6,68,30.01,10.0,West,3.5,-,N/A,,Overcast,270,2013-02-04 03:15:00
9:35 PM,17.6,8.6,68,30.02,10.0,West,5.8,-,N/A,,Overcast,270,2013-02-04 03:35:00
9:55 PM,17.6,8.6,68,30.02,10.0,West,5.8,-,N/A,,Overcast,260,2013-02-04 03:55:00
10:15 PM,17.6,8.6,68,30.02,10.0,West,5.8,-,N/A,,Overcast,260,2013-02-04 04:15:00
10:35 PM,17.6,8.6,68,30.02,10.0,West,5.8,-,N/A,,Overcast,260,2013-02-04 04:35:00
10:55 PM,17.6,8.6,68,30.03,10.0,West,4.6,-,N/A,,Overcast,260,2013-02-04 04:55:00
11:15 PM,17.6,10.4,73,30.02,10.0,West,5.8,-,N/A,,Overcast,260,2013-02-04 05:15:00
11:35 PM,17.6,10.4,73,30.02,10.0,West,5.8,-,N/A,,Overcast,260,2013-02-04 05:35:00
11:55 PM,15.8,10.4,79,30.02,7.0,West,5.8,-,N/A,Snow,Light Snow,270,2013-02-04 05:55:00